Time,TemperatureF,DewpointF,PressureIn,WindDirection,WindDirectionDegrees,WindSpeedMPH,WindSpeedGustMPH,Humidity,HourlyPrecipIn,Conditions,Clouds,dailyrainin,SoftwareType,DateUTC
2013-06-13 00:05:00,81.8,76.8,29.87,WSW,240,0.0,0.0,85,0.00,,,0.00,Wunderground v.1.15,2013-06-13 04:05:00,
2013-06-13 00:15:00,81.6,77.0,29.87,WSW,240,0.0,0.0,86,0.00,,,0.00,Wunderground v.1.15,2013-06-13 04:15:00,
2013-06-13 00:25:00,81.5,76.9,29.86,WSW,240,0.0,0.0,86,0.00,,,0.00,Wunderground v.1.15,2013-06-13 04:25:00,
2013-06-13 00:35:00,81.5,76.9,29.86,SW,227,0.0,0.0,86,0.00,,,0.00,Wunderground v.1.15,2013-06-13 04:35:00,
2013-06-13 00:45:00,81.4,76.8,29.86,SW,227,0.0,0.0,86,0.00,,,0.00,Wunderground v.1.15,2013-06-13 04:45:00,
2013-06-13 00:55:00,81.1,76.5,29.86,SW,221,0.0,0.0,86,0.00,,,0.00,Wunderground v.1.15,2013-06-13 04:55:00,
2013-06-13 01:04:00,80.9,76.3,29.85,SW,222,0.0,0.0,86,0.00,,,0.00,Wunderground v.1.15,2013-06-13 05:04:00,
2013-06-13 01:15:00,80.6,76.4,29.85,SW,222,0.0,0.0,87,0.00,,,0.00,Wunderground v.1.15,2013-06-13 05:15:00,
2013-06-13 01:25:00,80.4,76.2,29.85,NNW,338,0.0,0.0,87,0.00,,,0.00,Wunderground v.1.15,2013-06-13 05:25:00,
2013-06-13 01:35:00,80.2,76.3,29.85,SW,225,0.0,0.0,88,0.00,,,0.00,Wunderground v.1.15,2013-06-13 05:35:00,
2013-06-13 01:44:00,80.0,76.1,29.85,SW,225,0.0,0.0,88,0.00,,,0.00,Wunderground v.1.15,2013-06-13 05:44:00,
2013-06-13 01:54:00,79.9,76.4,29.84,SW,223,0.0,0.0,89,0.00,,,0.00,Wunderground v.1.15,2013-06-13 05:54:00,
2013-06-13 02:05:00,79.6,76.1,29.84,SW,223,0.0,0.0,89,0.00,,,0.00,Wunderground v.1.15,2013-06-13 06:05:00,
2013-06-13 02:14:00,79.6,76.1,29.84,NNW,347,0.0,0.0,89,0.00,,,0.00,Wunderground v.1.15,2013-06-13 06:14:00,
2013-06-13 02:24:00,79.4,75.9,29.83,NNW,347,0.0,0.0,89,0.00,,,0.00,Wunderground v.1.15,2013-06-13 06:24:00,
2013-06-13 02:34:00,79.1,75.6,29.83,NNW,347,0.0,0.0,89,0.00,,,0.00,Wunderground v.1.15,2013-06-13 06:34:00,
2013-06-13 02:44:00,78.9,75.4,29.83,NNW,344,0.0,0.0,89,0.00,,,0.00,Wunderground v.1.15,2013-06-13 06:44:00,
2013-06-13 02:54:00,78.7,75.5,29.83,NNW,344,0.0,0.0,90,0.00,,,0.00,Wunderground v.1.15,2013-06-13 06:54:00,
2013-06-13 03:04:00,78.7,75.5,29.83,NNW,344,0.0,0.0,90,0.00,,,0.00,Wunderground v.1.15,2013-06-13 07:04:00,
2013-06-13 03:14:00,78.6,75.8,29.83,NNW,344,0.0,0.0,91,0.00,,,0.00,Wunderground v.1.15,2013-06-13 07:14:00,
2013-06-13 03:24:00,78.2,75.4,29.83,NNW,344,0.0,0.0,91,0.00,,,0.00,Wunderground v.1.15,2013-06-13 07:24:00,
2013-06-13 03:34:00,77.9,75.1,29.83,NNW,344,0.0,0.0,91,0.00,,,0.00,Wunderground v.1.15,2013-06-13 07:34:00,
2013-06-13 03:44:00,77.7,75.2,29.83,NNW,344,0.0,0.0,92,0.00,,,0.00,Wunderground v.1.15,2013-06-13 07:44:00,
2013-06-13 03:54:00,77.4,74.9,29.83,NNW,344,0.0,0.0,92,0.00,,,0.00,Wunderground v.1.15,2013-06-13 07:54:00,
2013-06-13 04:04:00,77.3,75.1,29.83,NNW,344,0.0,0.0,93,0.00,,,0.00,Wunderground v.1.15,2013-06-13 08:04:00,
2013-06-13 04:14:00,77.3,75.1,29.83,NNW,348,0.0,1.0,93,0.00,,,0.00,Wunderground v.1.15,2013-06-13 08:14:00,
2013-06-13 04:24:00,77.3,75.1,29.83,NNW,344,0.0,0.0,93,0.00,,,0.00,Wunderground v.1.15,2013-06-13 08:24:00,
2013-06-13 04:34:00,77.1,74.9,29.83,NNW,342,0.0,0.0,93,0.00,,,0.00,Wunderground v.1.15,2013-06-13 08:34:00,
2013-06-13 04:44:00,76.9,74.7,29.83,NNW,331,0.0,0.0,93,0.00,,,0.00,Wunderground v.1.15,2013-06-13 08:44:00,
2013-06-13 04:54:00,76.9,75.0,29.83,NNW,330,0.0,0.0,94,0.00,,,0.00,Wunderground v.1.15,2013-06-13 08:54:00,
2013-06-13 05:04:00,76.9,74.7,29.83,NNW,333,0.0,0.0,93,0.00,,,0.00,Wunderground v.1.15,2013-06-13 09:04:00,
2013-06-13 05:14:00,76.7,74.8,29.83,NNW,333,0.0,0.0,94,0.00,,,0.00,Wunderground v.1.15,2013-06-13 09:14:00,
2013-06-13 05:24:00,76.6,74.7,29.82,WSW,257,0.0,0.0,94,0.00,,,0.00,Wunderground v.1.15,2013-06-13 09:24:00,
2013-06-13 05:34:00,76.5,74.6,29.82,West,267,0.0,0.0,94,0.00,,,0.00,Wunderground v.1.15,2013-06-13 09:34:00,
2013-06-13 05:44:00,76.4,74.9,29.82,SW,223,0.0,0.0,95,0.00,,,0.00,Wunderground v.1.15,2013-06-13 09:44:00,
2013-06-13 05:54:00,76.4,74.9,29.82,SW,223,0.0,0.0,95,0.00,,,0.00,Wunderground v.1.15,2013-06-13 09:54:00,
2013-06-13 06:04:00,76.4,74.9,29.82,North,355,0.0,0.0,95,0.00,,,0.00,Wunderground v.1.15,2013-06-13 10:04:00,
2013-06-13 06:14:00,76.4,74.5,29.82,North,355,0.0,0.0,94,0.00,,,0.00,Wunderground v.1.15,2013-06-13 10:14:00,
2013-06-13 06:25:00,76.4,74.5,29.82,WSW,238,0.0,0.0,94,0.00,,,0.00,Wunderground v.1.15,2013-06-13 10:25:00,
2013-06-13 06:35:00,76.5,74.6,29.82,WSW,238,0.0,0.0,94,0.00,,,0.00,Wunderground v.1.15,2013-06-13 10:35:00,
2013-06-13 06:45:00,76.6,74.7,29.82,WSW,237,0.0,0.0,94,0.00,,,0.00,Wunderground v.1.15,2013-06-13 10:45:00,
2013-06-13 06:55:00,76.7,74.8,29.83,SSW,207,0.0,0.0,94,0.00,,,0.00,Wunderground v.1.15,2013-06-13 10:55:00,
2013-06-13 07:05:00,76.8,74.9,29.83,SW,227,0.0,0.0,94,0.00,,,0.00,Wunderground v.1.15,2013-06-13 11:05:00,
2013-06-13 07:15:00,76.9,75.0,29.83,NNW,343,0.0,0.0,94,0.00,,,0.00,Wunderground v.1.15,2013-06-13 11:15:00,
2013-06-13 07:25:00,77.2,75.0,29.83,South,181,0.0,0.0,93,0.00,,,0.00,Wunderground v.1.15,2013-06-13 11:25:00,
2013-06-13 07:35:00,77.5,75.0,29.82,North,350,1.0,1.0,92,0.00,,,0.00,Wunderground v.1.15,2013-06-13 11:35:00,
2013-06-13 07:44:00,77.9,75.7,29.82,SW,235,0.0,3.0,93,0.00,,,0.00,Wunderground v.1.15,2013-06-13 11:44:00,
2013-06-13 07:55:00,78.6,76.1,29.82,WNW,302,0.0,0.0,92,0.00,,,0.00,Wunderground v.1.15,2013-06-13 11:55:00,
2013-06-13 08:05:00,79.2,75.7,29.82,SW,223,1.0,2.0,89,0.00,,,0.00,Wunderground v.1.15,2013-06-13 12:05:00,
2013-06-13 08:15:00,79.9,76.0,29.82,WSW,244,1.0,3.0,88,0.00,,,0.00,Wunderground v.1.15,2013-06-13 12:15:00,
2013-06-13 08:25:00,80.6,76.4,29.82,NW,314,1.0,1.0,87,0.00,,,0.00,Wunderground v.1.15,2013-06-13 12:25:00,
2013-06-13 08:35:00,81.1,76.2,29.82,SW,234,1.0,1.0,85,0.00,,,0.00,Wunderground v.1.15,2013-06-13 12:35:00,
2013-06-13 08:44:00,81.6,76.6,29.82,WNW,283,2.0,2.0,85,0.00,,,0.00,Wunderground v.1.15,2013-06-13 12:44:00,
2013-06-13 08:54:00,82.0,76.3,29.82,SE,146,1.0,2.0,83,0.00,,,0.00,Wunderground v.1.15,2013-06-13 12:54:00,
2013-06-13 09:04:00,82.6,76.9,29.82,South,187,1.0,1.0,83,0.00,,,0.00,Wunderground v.1.15,2013-06-13 13:04:00,
2013-06-13 09:14:00,83.1,77.0,29.82,West,266,1.0,1.0,82,0.00,,,0.00,Wunderground v.1.15,2013-06-13 13:14:00,
2013-06-13 09:24:00,83.6,77.1,29.82,SW,225,1.0,1.0,81,0.00,,,0.00,Wunderground v.1.15,2013-06-13 13:24:00,
2013-06-13 09:34:00,84.0,77.2,29.82,WNW,301,2.0,2.0,80,0.00,,,0.00,Wunderground v.1.15,2013-06-13 13:34:00,
2013-06-13 09:44:00,84.4,77.2,29.82,WSW,256,1.0,3.0,79,0.00,,,0.00,Wunderground v.1.15,2013-06-13 13:44:00,
2013-06-13 09:54:00,84.8,77.6,29.82,SW,216,1.0,1.0,79,0.00,,,0.00,Wunderground v.1.15,2013-06-13 13:54:00,
2013-06-13 10:04:00,85.2,77.6,29.81,NNW,338,2.0,6.0,78,0.00,,,0.00,Wunderground v.1.15,2013-06-13 14:04:00,
2013-06-13 10:14:00,85.8,78.1,29.81,NE,52,1.0,1.0,78,0.00,,,0.00,Wunderground v.1.15,2013-06-13 14:14:00,
2013-06-13 10:24:00,86.8,78.3,29.81,SSW,211,1.0,12.0,76,0.00,,,0.00,Wunderground v.1.15,2013-06-13 14:24:00,
2013-06-13 10:34:00,87.2,77.5,29.81,SSE,162,3.0,4.0,73,0.00,,,0.00,Wunderground v.1.15,2013-06-13 14:34:00,
2013-06-13 10:44:00,87.9,77.7,29.81,NNE,16,2.0,2.0,72,0.00,,,0.00,Wunderground v.1.15,2013-06-13 14:44:00,
2013-06-13 10:54:00,88.2,77.6,29.81,SSE,165,2.0,2.0,71,0.00,,,0.00,Wunderground v.1.15,2013-06-13 14:54:00,
2013-06-13 11:04:00,89.0,77.9,29.81,SSE,161,1.0,5.0,70,0.00,,,0.00,Wunderground v.1.15,2013-06-13 15:04:00,
2013-06-13 11:14:00,89.3,76.9,29.81,ESE,107,3.0,3.0,67,0.00,,,0.00,Wunderground v.1.15,2013-06-13 15:14:00,
2013-06-13 11:24:00,89.7,76.8,29.80,North,360,2.0,7.0,66,0.00,,,0.00,Wunderground v.1.15,2013-06-13 15:24:00,
2013-06-13 11:34:00,90.4,77.0,29.80,SSE,167,1.0,2.0,65,0.00,,,0.00,Wunderground v.1.15,2013-06-13 15:34:00,
2013-06-13 11:44:00,90.8,76.5,29.80,WNW,295,1.0,1.0,63,0.00,,,0.00,Wunderground v.1.15,2013-06-13 15:44:00,
2013-06-13 11:54:00,90.9,76.6,29.80,SSW,203,3.0,3.0,63,0.00,,,0.00,Wunderground v.1.15,2013-06-13 15:54:00,
2013-06-13 12:04:00,91.5,76.1,29.80,NNW,335,2.0,2.0,61,0.00,,,0.00,Wunderground v.1.15,2013-06-13 16:04:00,
2013-06-13 12:15:00,91.7,75.8,29.79,SSW,213,2.0,2.0,60,0.00,,,0.00,Wunderground v.1.15,2013-06-13 16:15:00,
2013-06-13 12:25:00,91.1,74.8,29.79,SW,215,4.0,4.0,59,0.00,,,0.00,Wunderground v.1.15,2013-06-13 16:25:00,
2013-06-13 12:35:00,91.9,75.5,29.78,SW,224,3.0,3.0,59,0.00,,,0.00,Wunderground v.1.15,2013-06-13 16:35:00,
2013-06-13 12:45:00,91.6,75.2,29.78,NW,319,3.0,3.0,59,0.00,,,0.00,Wunderground v.1.15,2013-06-13 16:45:00,
2013-06-13 12:55:00,91.9,77.0,29.77,NW,318,2.0,6.0,62,0.00,,,0.00,Wunderground v.1.15,2013-06-13 16:55:00,
2013-06-13 13:05:00,92.1,76.7,29.77,South,190,3.0,5.0,61,0.00,,,0.00,Wunderground v.1.15,2013-06-13 17:05:00,
2013-06-13 13:15:00,92.1,75.7,29.77,South,182,2.0,2.0,59,0.00,,,0.00,Wunderground v.1.15,2013-06-13 17:15:00,
2013-06-13 13:24:00,92.1,76.2,29.77,SW,234,3.0,3.0,60,0.00,,,0.00,Wunderground v.1.15,2013-06-13 17:24:00,
2013-06-13 13:34:00,92.2,75.8,29.76,South,180,4.0,4.0,59,0.00,,,0.00,Wunderground v.1.15,2013-06-13 17:34:00,
2013-06-13 13:45:00,92.2,75.8,29.76,North,355,4.0,5.0,59,0.00,,,0.00,Wunderground v.1.15,2013-06-13 17:45:00,
2013-06-13 13:55:00,91.9,76.5,29.75,West,275,3.0,3.0,61,0.00,,,0.00,Wunderground v.1.15,2013-06-13 17:55:00,
2013-06-13 14:04:00,92.3,75.4,29.75,West,263,4.0,7.0,58,0.00,,,0.00,Wunderground v.1.15,2013-06-13 18:04:00,
2013-06-13 14:15:00,92.5,76.1,29.75,SW,236,3.0,4.0,59,0.00,,,0.00,Wunderground v.1.15,2013-06-13 18:15:00,
2013-06-13 14:25:00,92.8,75.8,29.74,West,259,3.0,5.0,58,0.00,,,0.00,Wunderground v.1.15,2013-06-13 18:25:00,
2013-06-13 14:35:00,93.2,76.2,29.74,SSW,204,4.0,9.0,58,0.00,,,0.00,Wunderground v.1.15,2013-06-13 18:35:00,
2013-06-13 14:44:00,93.1,75.6,29.74,SW,223,4.0,4.0,57,0.00,,,0.00,Wunderground v.1.15,2013-06-13 18:44:00,
2013-06-13 14:54:00,93.4,75.9,29.74,SW,217,3.0,7.0,57,0.00,,,0.00,Wunderground v.1.15,2013-06-13 18:54:00,
2013-06-13 15:04:00,93.3,77.8,29.73,WSW,240,3.0,5.0,61,0.00,,,0.00,Wunderground v.1.15,2013-06-13 19:04:00,
2013-06-13 15:14:00,93.1,77.2,29.73,SW,223,4.0,4.0,60,0.00,,,0.00,Wunderground v.1.15,2013-06-13 19:14:00,
2013-06-13 15:24:00,93.5,77.5,29.73,SW,220,3.0,3.0,60,0.00,,,0.00,Wunderground v.1.15,2013-06-13 19:24:00,
2013-06-13 15:34:00,93.8,76.3,29.72,NNE,19,4.0,4.0,57,0.00,,,0.00,Wunderground v.1.15,2013-06-13 19:34:00,
2013-06-13 15:44:00,94.0,77.5,29.72,West,271,3.0,3.0,59,0.00,,,0.00,Wunderground v.1.15,2013-06-13 19:44:00,
2013-06-13 15:54:00,93.5,77.0,29.72,NW,304,2.0,2.0,59,0.00,,,0.00,Wunderground v.1.15,2013-06-13 19:54:00,
2013-06-13 16:04:00,93.4,76.4,29.71,South,169,2.0,2.0,58,0.00,,,0.00,Wunderground v.1.15,2013-06-13 20:04:00,
2013-06-13 16:14:00,93.6,75.5,29.71,NW,311,3.0,3.0,56,0.00,,,0.00,Wunderground v.1.15,2013-06-13 20:14:00,
2013-06-13 16:24:00,93.8,77.3,29.70,SSW,200,3.0,5.0,59,0.00,,,0.00,Wunderground v.1.15,2013-06-13 20:24:00,
2013-06-13 16:34:00,94.1,77.1,29.70,SW,223,2.0,2.0,58,0.00,,,0.00,Wunderground v.1.15,2013-06-13 20:34:00,
2013-06-13 16:44:00,94.0,76.4,29.70,East,81,2.0,2.0,57,0.00,,,0.00,Wunderground v.1.15,2013-06-13 20:44:00,
2013-06-13 16:54:00,93.7,76.2,29.70,SW,229,4.0,4.0,57,0.00,,,0.00,Wunderground v.1.15,2013-06-13 20:54:00,
2013-06-13 17:04:00,93.2,75.7,29.69,SSW,211,2.0,2.0,57,0.00,,,0.00,Wunderground v.1.15,2013-06-13 21:04:00,
2013-06-13 17:14:00,92.9,75.4,29.69,SE,134,2.0,2.0,57,0.00,,,0.00,Wunderground v.1.15,2013-06-13 21:14:00,
2013-06-13 17:24:00,92.8,75.8,29.69,WSW,243,2.0,4.0,58,0.00,,,0.00,Wunderground v.1.15,2013-06-13 21:24:00,
2013-06-13 17:34:00,92.9,74.9,29.68,NW,305,3.0,3.0,56,0.00,,,0.00,Wunderground v.1.15,2013-06-13 21:34:00,
2013-06-13 17:44:00,92.8,75.3,29.68,SSW,207,2.0,2.0,57,0.00,,,0.00,Wunderground v.1.15,2013-06-13 21:44:00,
2013-06-13 17:54:00,92.3,75.9,29.68,SW,232,2.0,2.0,59,0.00,,,0.00,Wunderground v.1.15,2013-06-13 21:54:00,
2013-06-13 18:04:00,92.0,75.6,29.68,SSW,198,2.0,3.0,59,0.00,,,0.00,Wunderground v.1.15,2013-06-13 22:04:00,
2013-06-13 18:15:00,92.1,76.2,29.68,SW,215,3.0,3.0,60,0.00,,,0.00,Wunderground v.1.15,2013-06-13 22:15:00,
2013-06-13 18:25:00,92.0,75.6,29.68,SW,227,2.0,2.0,59,0.00,,,0.00,Wunderground v.1.15,2013-06-13 22:25:00,
2013-06-13 18:35:00,92.0,76.1,29.68,South,188,2.0,5.0,60,0.00,,,0.00,Wunderground v.1.15,2013-06-13 22:35:00,
2013-06-13 18:45:00,91.3,75.5,29.68,SW,215,3.0,3.0,60,0.00,,,0.00,Wunderground v.1.15,2013-06-13 22:45:00,
2013-06-13 18:55:00,90.5,74.7,29.68,WSW,249,2.0,2.0,60,0.00,,,0.00,Wunderground v.1.15,2013-06-13 22:55:00,
2013-06-13 19:05:00,90.2,75.4,29.68,SSW,202,2.0,2.0,62,0.00,,,0.00,Wunderground v.1.15,2013-06-13 23:05:00,
2013-06-13 19:15:00,89.9,74.6,29.68,SSW,198,1.0,4.0,61,0.00,,,0.00,Wunderground v.1.15,2013-06-13 23:15:00,
2013-06-13 19:25:00,89.6,75.8,29.69,South,191,2.0,2.0,64,0.00,,,0.00,Wunderground v.1.15,2013-06-13 23:25:00,
2013-06-13 19:35:00,89.3,75.5,29.69,SSW,193,1.0,1.0,64,0.00,,,0.00,Wunderground v.1.15,2013-06-13 23:35:00,
2013-06-13 19:44:00,89.0,75.2,29.69,South,184,0.0,0.0,64,0.00,,,0.00,Wunderground v.1.15,2013-06-13 23:44:00,
2013-06-13 19:54:00,88.5,75.2,29.69,SSW,200,0.0,0.0,65,0.00,,,0.00,Wunderground v.1.15,2013-06-13 23:54:00,
2013-06-13 20:04:00,88.1,75.3,29.69,SW,235,1.0,1.0,66,0.00,,,0.00,Wunderground v.1.15,2013-06-14 00:04:00,
2013-06-13 20:15:00,87.8,75.5,29.69,SW,229,1.0,1.0,67,0.00,,,0.00,Wunderground v.1.15,2013-06-14 00:15:00,
2013-06-13 20:25:00,87.9,75.1,29.69,South,188,1.0,5.0,66,0.00,,,0.00,Wunderground v.1.15,2013-06-14 00:25:00,
2013-06-13 20:34:00,87.3,75.0,29.70,South,186,0.0,1.0,67,0.00,,,0.00,Wunderground v.1.15,2013-06-14 00:34:00,
2013-06-13 20:44:00,87.0,74.7,29.70,South,171,1.0,1.0,67,0.00,,,0.00,Wunderground v.1.15,2013-06-14 00:44:00,
2013-06-13 20:54:00,86.6,75.2,29.69,SSW,207,1.0,1.0,69,0.00,,,0.00,Wunderground v.1.15,2013-06-14 00:54:00,
2013-06-13 21:04:00,86.5,74.7,29.66,SSW,199,2.0,4.0,68,0.00,,,0.00,Wunderground v.1.15,2013-06-14 01:04:00,
2013-06-13 21:14:00,86.8,75.0,29.66,SSW,212,2.0,2.0,68,0.00,,,0.00,Wunderground v.1.15,2013-06-14 01:14:00,
2013-06-13 21:24:00,86.9,74.6,29.65,WSW,237,2.0,2.0,67,0.00,,,0.00,Wunderground v.1.15,2013-06-14 01:24:00,
2013-06-13 21:34:00,87.1,74.8,29.67,West,263,2.0,2.0,67,0.00,,,0.00,Wunderground v.1.15,2013-06-14 01:34:00,
2013-06-13 21:44:00,87.0,74.3,29.67,SSW,213,3.0,7.0,66,0.00,,,0.00,Wunderground v.1.15,2013-06-14 01:44:00,
2013-06-13 21:54:00,87.1,74.4,29.65,South,187,3.0,3.0,66,0.00,,,0.00,Wunderground v.1.15,2013-06-14 01:54:00,
2013-06-13 22:04:00,87.0,74.7,29.66,SSW,204,2.0,2.0,67,0.00,,,0.00,Wunderground v.1.15,2013-06-14 02:04:00,
2013-06-13 22:14:00,86.1,75.6,29.66,NNW,337,2.0,2.0,71,0.00,,,0.00,Wunderground v.1.15,2013-06-14 02:14:00,
2013-06-13 22:24:00,84.8,75.6,29.69,NNW,331,1.0,3.0,74,0.00,,,0.00,Wunderground v.1.15,2013-06-14 02:24:00,
2013-06-13 22:34:00,84.1,75.3,29.68,NE,35,1.0,1.0,75,0.00,,,0.00,Wunderground v.1.15,2013-06-14 02:34:00,
2013-06-13 22:44:00,84.0,75.2,29.68,NNE,19,0.0,0.0,75,0.00,,,0.00,Wunderground v.1.15,2013-06-14 02:44:00,
2013-06-13 22:54:00,83.7,74.9,29.68,NE,52,0.0,0.0,75,0.00,,,0.00,Wunderground v.1.15,2013-06-14 02:54:00,
2013-06-13 23:04:00,83.3,75.3,29.68,West,273,1.0,1.0,77,0.00,,,0.00,Wunderground v.1.15,2013-06-14 03:04:00,
2013-06-13 23:14:00,82.7,75.1,29.68,NW,321,1.0,1.0,78,0.00,,,0.00,Wunderground v.1.15,2013-06-14 03:14:00,
2013-06-13 23:24:00,82.1,75.3,29.68,WNW,300,0.0,0.0,80,0.00,,,0.00,Wunderground v.1.15,2013-06-14 03:24:00,
2013-06-13 23:34:00,81.5,74.4,29.70,WNW,284,1.0,2.0,79,0.00,,,0.00,Wunderground v.1.15,2013-06-14 03:34:00,
2013-06-13 23:44:00,81.1,74.0,29.70,ENE,60,1.0,1.0,79,0.00,,,0.00,Wunderground v.1.15,2013-06-14 03:44:00,
2013-06-13 23:54:00,80.6,73.9,29.69,ENE,59,0.0,0.0,80,0.00,,,0.00,Wunderground v.1.15,2013-06-14 03:54:00,